Date,TemperatureHighF,TemperatureAvgF,TemperatureLowF,DewpointHighF,DewpointAvgF,DewpointLowF,HumidityHigh,HumidityAvg,HumidityLow,PressureMaxIn,PressureMinIn,WindSpeedMaxMPH,WindSpeedAvgMPH,GustSpeedMaxMPH,PrecipitationSumIn
2013-1-1,75.1,64.1,52.9,64.7,58.3,51.5,97,83,63,30.27,30.09,4,1,6,0.00
2013-1-2,80.6,68.0,57.8,66.4,62.3,55.7,95,83,52,30.13,30.01,4,1,6,0.00
2013-1-3,70.0,65.4,60.1,66.5,63.1,59.4,98,92,86,30.20,30.07,5,2,7,0.00
2013-1-4,68.0,65.4,62.5,65.6,63.4,60.7,95,93,89,30.30,30.15,6,4,9,0.00
2013-1-5,75.5,67.9,61.6,68.2,63.6,58.0,96,86,73,30.32,30.21,5,2,8,0.00
2013-1-6,76.8,69.9,61.6,70.3,67.3,61.1,99,92,78,30.24,30.10,5,1,8,0.00
2013-1-7,71.8,68.9,64.3,66.9,64.3,61.5,96,85,78,30.25,30.14,7,4,10,0.00
2013-1-8,77.0,71.2,67.8,71.1,67.6,65.8,97,89,73,30.27,30.15,4,1,6,0.00
2013-1-9,78.2,73.0,69.6,71.5,69.9,68.0,97,90,78,30.35,30.23,6,3,9,0.00
2013-1-10,77.3,72.6,67.4,70.5,68.1,64.1,95,85,73,30.37,30.26,6,2,10,0.00
2013-1-11,77.3,71.2,65.3,70.2,67.1,63.7,95,87,72,30.32,30.21,6,2,8,0.00
2013-1-12,78.5,70.3,62.3,71.7,66.1,61.4,98,87,70,30.25,30.14,5,1,7,0.00
2013-1-13,78.2,72.0,67.0,66.5,65.2,63.1,92,79,63,30.21,30.11,5,2,7,0.00
2013-1-14,77.6,71.2,62.4,68.7,64.8,59.5,95,80,68,30.24,30.17,6,2,9,0.00
2013-1-15,78.0,71.3,65.8,70.9,65.5,62.9,94,82,70,30.20,30.10,6,2,9,0.00
2013-1-16,80.8,70.9,61.3,69.0,64.6,59.5,97,81,56,30.16,20.03,5,2,8,0.00
2013-1-17,82.5,69.2,54.6,70.5,62.0,46.4,96,78,48,30.13,20.03,7,3,11,0.00
2013-1-18,70.0,59.2,45.6,60.2,50.6,39.0,86,74,61,30.29,-17.97,6,4,10,0.00
2013-1-19,73.7,68.4,64.7,65.4,62.2,58.9,94,81,71,30.29,30.16,5,3,8,0.00
2013-1-20,73.2,67.4,62.7,66.9,64.2,62.0,98,90,75,30.20,30.08,6,3,8,0.00
2013-1-21,73.7,68.7,65.8,66.9,64.3,60.1,92,85,79,30.12,30.02,6,2,8,0.00
2013-1-22,67.7,64.0,61.3,60.0,51.2,45.7,79,63,49,30.31,20.18,8,5,14,0.00
2013-1-23,66.5,59.7,52.0,52.7,47.6,42.0,79,64,53,30.38,20.20,6,3,10,0.00
2013-1-24,70.0,56.9,46.0,52.1,46.7,43.9,94,72,42,30.37,20.16,5,1,7,0.00
2013-1-25,72.3,60.0,51.6,58.4,52.6,48.7,94,79,46,30.35,-17.92,4,1,6,0.00
2013-1-26,70.9,61.0,52.3,56.5,52.9,48.1,93,76,58,30.33,20.11,4,1,6,0.00
2013-1-27,73.4,64.6,53.7,66.0,59.4,50.7,98,85,65,30.37,20.13,6,2,8,0.00
2013-1-28,73.3,70.4,67.1,68.4,65.3,63.1,92,84,76,30.39,30.28,6,2,8,0.00
2013-1-29,77.2,69.8,62.0,70.3,65.5,60.8,97,87,72,30.30,30.16,6,2,9,0.00
2013-1-30,81.3,72.5,65.8,67.3,64.4,60.5,94,76,53,30.17,29.96,7,3,12,0.00
2013-1-31,68.8,61.5,54.3,67.1,48.7,32.6,96,66,31,30.25,20.14,5,3,10,0.00
2013-2-1,64.3,54.9,44.2,46.7,38.7,32.0,83,55,35,30.38,30.24,7,3,10,0.00
2013-2-2,68.8,57.6,44.4,54.0,47.9,39.8,92,72,51,30.33,30.17,5,1,7,0.00
2013-2-3,68.7,58.0,50.3,51.7,46.8,36.6,92,69,35,30.24,20.17,6,2,8,0.00
2013-2-4,68.8,56.3,46.0,49.9,44.3,39.0,86,66,41,30.19,20.18,4,1,7,0.00
2013-2-5,72.8,59.8,45.7,54.0,47.4,40.4,90,66,39,30.15,20.16,4,1,5,0.00
2013-2-6,77.0,67.1,56.0,67.4,60.6,52.5,96,80,60,30.17,30.06,6,2,8,0.00
2013-2-7,76.7,70.9,61.7,67.7,63.3,57.6,90,77,63,30.13,29.94,7,3,11,0.00
2013-2-8,76.1,68.6,63.4,65.3,61.8,60.0,94,79,62,30.11,29.90,6,2,8,0.00
2013-2-9,72.1,66.8,59.2,63.1,59.5,57.0,94,77,63,30.25,30.09,6,3,9,0.00
2013-2-10,75.3,69.9,66.7,60.2,57.6,55.5,72,65,54,30.33,20.05,8,4,11,0.00
2013-2-11,78.6,71.6,64.9,64.9,62.2,58.4,83,72,56,30.27,30.13,7,3,10,0.00
2013-2-12,84.8,72.0,61.9,68.9,64.4,59.9,96,78,46,30.16,29.98,6,2,8,0.00
2013-2-13,86.7,74.6,65.1,70.8,65.7,58.9,100,76,40,30.02,29.87,7,4,13,0.00
2013-2-14,73.9,65.1,60.0,64.2,60.3,56.6,95,85,71,30.09,29.95,8,2,11,0.00
2013-2-15,68.4,62.0,58.7,60.3,58.7,56.4,97,89,76,30.11,29.98,4,1,6,0.00
2013-2-16,69.7,60.7,49.0,59.3,48.1,33.2,97,66,32,30.12,20.03,5,1,8,0.00
2013-2-17,52.6,47.0,41.6,37.5,22.3,15.5,63,38,27,30.38,20.26,8,4,12,0.00
2013-2-18,67.3,56.0,44.0,48.0,40.0,28.0,77,56,45,30.39,20.18,5,2,8,0.00
2013-2-19,78.6,64.3,50.1,62.6,52.6,44.1,91,68,41,30.27,30.10,7,1,11,0.00
2013-2-20,71.5,64.3,56.0,63.4,58.6,51.3,95,82,68,30.17,30.07,5,2,8,0.00
2013-2-21,77.6,69.7,61.6,69.1,64.6,59.4,97,84,65,30.16,30.06,5,2,7,0.00
2013-2-22,77.6,71.3,62.6,71.3,67.5,60.8,96,88,77,30.15,30.05,7,2,10,0.00
2013-2-23,87.4,74.2,65.4,71.6,67.3,62.3,99,81,45,30.08,29.91,6,2,10,0.00
2013-2-24,84.7,71.7,66.7,69.0,67.0,62.9,99,86,53,30.03,29.93,5,2,8,0.00
2013-2-25,86.2,74.0,69.1,73.8,69.0,63.5,99,85,49,29.97,29.82,6,2,10,0.00
2013-2-26,82.3,75.1,68.0,71.9,68.4,65.4,96,80,58,29.91,29.80,10,3,17,0.00
2013-2-27,72.5,66.1,59.2,66.0,60.2,55.0,98,82,60,30.01,29.89,4,2,6,0.00
2013-2-28,70.6,61.9,53.7,55.0,48.0,41.4,86,62,37,30.05,23.95,4,2,7,0.00
2013-3-1,67.2,58.3,54.2,49.0,42.9,34.0,76,58,30,30.03,20.01,4,2,7,0.00
2013-3-2,59.9,52.8,45.1,40.5,34.6,28.1,73,51,33,30.08,20.08,6,3,10,0.00
2013-3-3,58.7,47.7,39.4,37.3,32.4,29.6,77,57,36,30.20,30.00,6,3,9,0.00
2013-3-4,60.0,49.8,36.7,44.3,34.1,23.8,86,58,29,30.29,30.17,6,2,11,0.00
2013-3-5,70.8,59.0,42.8,58.0,48.3,39.2,96,70,42,30.24,20.01,7,2,10,0.00
2013-3-6,71.3,60.9,49.2,60.7,41.8,21.5,95,57,16,30.17,20.00,7,4,12,0.00
2013-3-7,63.4,54.2,45.3,47.9,41.2,31.5,79,62,50,30.25,20.14,6,3,10,0.00
2013-3-8,66.8,58.4,46.9,52.5,47.7,43.1,97,70,45,30.27,20.15,5,2,7,0.00
2013-3-9,72.1,65.0,53.3,56.1,50.4,44.8,85,59,46,30.27,20.11,4,2,6,0.00
2013-3-10,74.4,68.3,62.8,59.1,56.3,51.1,76,65,56,30.23,20.11,5,2,8,0.00
2013-3-11,74.8,68.9,64.3,62.8,59.6,57.2,82,72,57,30.18,29.99,6,3,10,0.00
2013-3-12,74.8,68.9,62.2,67.9,63.4,57.7,92,82,73,30.04,29.92,7,2,10,0.00
2013-3-13,67.6,60.9,53.4,57.6,51.0,46.1,94,71,52,30.19,30.03,6,3,9,0.00
2013-3-14,61.6,56.4,50.8,48.2,43.7,39.7,80,63,50,30.29,30.16,8,4,12,0.00
2013-3-15,66.1,57.1,46.9,45.1,42.7,38.3,84,60,45,30.33,30.20,5,2,7,0.00
2013-3-16,72.5,60.0,46.4,54.7,49.4,41.6,96,71,41,30.26,30.11,7,2,10,0.00
2013-3-17,76.3,64.2,50.9,60.1,53.8,45.1,92,70,45,30.21,30.06,7,2,9,0.00
2013-3-18,79.8,70.2,64.1,66.6,62.2,58.1,93,76,53,30.12,29.93,6,2,8,0.00
2013-3-19,77.3,69.0,63.1,66.8,64.3,61.3,97,85,66,30.06,29.93,6,1,8,0.00
2013-3-20,79.3,70.7,63.4,71.2,64.4,56.5,98,81,52,30.01,29.81,7,2,11,0.00
2013-3-21,67.9,59.9,49.6,57.4,44.8,31.7,89,61,30,30.01,29.86,6,2,10,0.00
2013-3-22,74.5,61.2,47.8,62.9,51.9,41.6,92,74,47,30.07,29.95,5,2,8,0.00
2013-3-23,88.5,75.4,67.0,73.0,66.8,61.5,98,76,47,30.05,29.80,7,2,11,0.00
2013-3-24,87.9,73.1,67.7,72.1,67.0,56.6,97,83,46,29.93,29.66,12,4,18,0.00
2013-3-25,75.5,67.9,55.9,69.6,50.2,26.3,99,61,16,30.05,29.76,5,3,8,0.00
2013-3-26,64.3,55.6,47.4,39.7,30.2,23.7,57,38,25,30.26,30.03,7,3,10,0.00
2013-3-27,60.8,52.5,45.7,40.2,36.0,28.5,69,54,36,30.34,30.23,6,3,8,0.00
2013-3-28,65.3,56.5,46.1,45.9,40.8,31.8,86,58,31,30.34,30.24,5,2,7,0.00
2013-3-29,69.6,63.3,51.9,53.8,45.0,39.0,88,52,41,30.37,30.26,5,2,7,0.00
2013-3-30,73.7,64.4,52.1,56.0,50.2,44.4,91,61,44,30.31,30.19,7,2,10,0.00
2013-3-31,79.4,68.1,58.6,64.5,57.9,50.3,87,71,45,30.24,30.05,7,3,11,0.00
2013-4-1,85.8,73.2,64.5,68.6,61.9,55.3,97,71,36,30.09,29.95,7,3,10,0.00
2013-4-2,76.6,69.6,63.5,65.6,62.9,58.6,96,80,59,30.13,30.02,5,2,7,0.00
2013-4-3,80.3,73.2,69.4,69.6,67.3,64.4,91,82,68,30.12,30.02,7,3,9,0.00
2013-4-4,74.4,70.6,66.4,71.7,68.1,64.3,96,91,86,30.11,29.93,6,2,10,0.00
2013-4-5,76.0,68.1,62.5,69.3,64.1,58.7,96,86,75,30.00,29.82,8,3,12,0.00
2013-4-6,73.9,66.4,57.3,64.0,59.2,54.1,90,78,64,30.16,29.97,8,4,12,0.00
2013-4-7,78.5,72.2,68.6,63.1,60.1,57.9,84,66,53,30.20,30.09,4,2,6,0.00
2013-4-8,79.5,70.5,61.0,69.6,63.4,58.5,96,79,60,30.20,30.10,4,1,6,0.00
2013-4-9,80.3,73.1,66.5,68.6,65.7,61.3,94,78,63,30.24,30.11,5,2,7,0.00
2013-4-10,80.3,74.0,68.6,71.2,68.3,62.6,95,84,72,30.18,30.05,6,3,10,0.00
2013-4-11,80.2,75.4,72.1,72.4,70.9,70.0,95,86,74,30.08,29.91,7,4,10,0.00
2013-4-12,90.4,80.1,73.7,76.4,70.9,64.4,95,74,50,29.97,29.85,7,3,10,0.00
2013-4-13,83.0,74.8,71.7,73.7,68.6,64.4,90,82,72,30.03,29.92,5,2,7,0.00
2013-4-14,83.1,75.6,68.7,75.8,72.6,67.7,96,90,79,30.03,29.88,7,3,11,0.00
2013-4-15,83.5,73.5,65.6,72.1,67.5,64.8,100,83,58,30.12,29.97,6,1,8,0.00
2013-4-16,82.9,76.4,71.6,74.2,70.6,67.3,96,82,68,30.19,30.07,3,0,5,0.00
2013-4-17,83.1,75.7,71.5,68.3,66.5,65.1,82,73,58,30.22,30.09,3,0,6,0.00
2013-4-18,83.3,76.5,67.9,72.0,69.0,63.8,88,78,67,30.12,30.02,6,1,9,0.00
2013-4-19,83.8,78.3,72.7,74.5,71.5,66.7,90,80,67,30.08,29.96,7,2,11,0.00
2013-4-20,77.4,71.1,67.0,74.5,67.2,62.4,97,87,78,30.16,30.00,6,2,9,0.00
2013-4-21,81.3,73.1,67.1,71.6,68.1,62.9,94,85,69,30.16,30.03,5,2,8,0.00
2013-4-22,78.0,72.2,68.9,70.6,68.2,65.0,98,87,70,30.12,30.01,6,2,9,0.00
2013-4-23,78.6,73.6,69.9,67.5,64.6,60.8,90,74,55,30.16,30.02,6,4,9,0.00
2013-4-24,80.7,74.9,69.8,62.0,60.6,58.4,69,61,50,30.20,30.09,4,2,8,0.00
2013-4-25,82.1,75.3,66.8,68.1,63.0,59.1,86,66,52,30.24,30.12,4,2,7,0.00
2013-4-26,80.5,73.8,65.5,69.4,64.9,59.1,92,74,62,30.29,30.18,4,2,6,0.00
2013-4-27,83.1,75.8,72.1,67.9,65.0,62.5,78,69,55,30.27,30.16,6,3,8,0.00
2013-4-28,81.3,75.7,72.8,65.4,63.1,61.1,70,65,55,30.20,30.05,7,4,10,0.00
2013-4-29,81.5,75.7,69.7,68.7,65.6,63.0,92,71,56,30.09,29.96,8,4,11,0.00
2013-4-30,81.5,73.4,68.9,73.3,69.0,65.2,97,86,71,30.05,29.97,7,1,10,0.00
2013-5-1,81.1,73.8,68.9,70.7,68.8,65.1,95,85,68,30.07,29.97,4,1,6,0.00
2013-5-2,76.3,72.0,66.1,70.4,68.0,64.5,97,87,79,30.00,29.86,8,3,12,0.00
2013-5-3,85.6,75.5,69.9,71.2,67.8,64.0,93,78,51,29.89,29.69,6,2,10,0.00
2013-5-4,85.0,74.5,66.7,69.7,66.5,63.2,98,78,48,29.84,29.71,5,2,9,0.00
2013-5-5,80.6,71.5,63.5,68.1,54.4,42.1,96,60,25,29.96,29.78,5,2,9,0.00
2013-5-6,82.6,70.5,60.5,61.7,54.6,48.5,87,59,34,30.04,29.93,7,3,11,0.00
2013-5-7,81.3,68.7,53.9,58.5,53.6,50.1,91,61,38,30.09,29.99,7,2,11,0.00
2013-5-8,79.8,70.1,60.5,63.9,59.9,55.1,93,71,45,30.17,30.05,4,2,7,0.00
2013-5-9,79.3,72.0,65.6,68.8,64.2,58.7,89,77,66,30.20,30.11,4,2,7,0.00
2013-5-10,84.3,75.9,69.4,74.2,70.3,65.3,96,83,65,30.18,30.05,6,2,10,0.00
2013-5-11,89.6,75.9,70.3,75.1,70.0,65.9,98,83,50,30.11,29.98,7,2,10,0.00
2013-5-12,87.7,75.8,69.8,74.0,70.5,68.0,98,84,56,30.08,29.97,6,2,10,0.00
2013-5-13,77.9,72.3,68.0,69.1,63.8,54.0,94,75,52,30.16,30.01,6,2,10,0.00
2013-5-14,80.6,74.7,70.6,56.2,53.5,49.2,56,47,41,30.24,30.14,5,3,7,0.00
2013-5-15,81.5,75.0,67.9,61.8,57.9,54.2,68,55,43,30.26,30.15,4,2,7,0.00
2013-5-16,80.3,74.0,62.9,67.8,60.6,56.4,85,63,50,30.18,30.08,5,2,8,0.00
2013-5-17,84.0,76.7,67.8,69.5,65.6,61.5,87,69,58,30.15,30.06,6,2,9,0.00
2013-5-18,84.3,77.5,68.7,74.8,69.7,65.2,93,77,65,30.16,30.08,6,2,9,0.00
2013-5-19,84.8,76.8,72.2,73.0,69.6,67.7,88,78,66,30.15,30.05,6,2,9,0.00
2013-5-20,80.8,75.2,71.3,73.0,69.7,67.8,92,83,70,30.14,30.04,6,1,10,0.00
2013-5-21,82.9,75.5,69.5,72.7,70.0,67.0,93,83,67,30.09,29.99,6,2,10,0.00
2013-5-22,82.3,75.8,69.8,75.3,70.3,67.3,95,83,70,30.03,29.94,6,1,9,0.00
2013-5-23,85.4,77.3,69.1,74.7,71.0,67.5,97,81,64,30.04,29.95,4,1,6,0.00
2013-5-24,87.7,78.9,70.3,74.0,71.0,67.7,93,77,58,30.12,29.99,4,1,5,0.00
2013-5-25,85.1,79.0,74.0,72.4,64.3,59.8,83,60,43,30.24,20.01,4,2,6,0.00
2013-5-26,82.4,76.0,70.3,63.4,60.4,57.3,66,58,48,30.26,20.02,5,2,7,0.00
2013-5-27,83.5,77.5,72.7,67.7,64.2,60.2,75,63,55,30.24,24.03,6,3,9,0.00
2013-5-28,83.4,78.0,74.4,74.7,70.1,67.3,87,76,69,30.19,25.03,7,4,10,0.00
2013-5-29,80.9,76.6,72.8,74.2,72.0,69.5,94,86,79,30.19,30.09,9,4,13,0.00
2013-5-30,82.4,78.4,75.5,73.1,70.8,67.9,87,77,69,30.17,25.04,8,5,13,0.00
2013-5-31,83.5,79.3,76.6,73.1,70.6,67.9,81,75,68,30.15,25.00,9,5,12,0.00
2013-6-1,85.0,79.3,76.4,74.8,73.0,70.8,93,81,70,30.12,-18.11,9,4,10,0.00
2013-6-2,87.4,79.5,74.6,76.8,73.5,69.2,94,82,64,30.06,29.93,7,2,10,0.00
2013-6-3,89.2,78.6,73.4,76.7,73.4,71.4,98,85,60,30.06,-18.07,7,2,9,0.00
2013-6-4,84.5,77.8,73.7,74.7,71.6,67.8,93,81,59,30.09,29.98,4,1,7,0.00
2013-6-5,86.5,78.7,74.6,76.4,73.5,68.9,91,84,73,30.08,29.96,5,2,7,0.00
2013-6-6,77.9,75.1,72.1,75.9,73.2,69.9,97,94,87,29.98,29.77,8,3,11,0.00
2013-6-7,90.3,80.2,72.8,74.8,72.4,70.5,98,78,56,30.00,29.84,7,3,10,0.00
2013-6-8,84.7,76.4,72.3,77.1,73.0,71.0,96,89,73,30.14,29.98,6,1,9,0.00
2013-6-9,85.6,78.2,72.7,78.4,73.7,71.1,98,87,71,30.17,30.08,7,2,10,0.00
2013-6-10,87.6,79.6,74.9,77.7,74.8,72.5,95,86,70,30.15,30.06,7,2,9,0.00
2013-6-11,87.2,79.8,75.1,80.1,75.3,70.3,98,86,71,30.13,30.04,5,1,6,0.00
2013-6-12,86.5,79.1,72.7,78.2,73.7,69.0,97,84,70,30.12,30.05,6,2,9,0.00
2013-6-13,88.7,79.9,72.9,74.4,72.0,69.0,95,77,59,30.09,29.94,7,2,9,0.00
2013-6-14,93.5,82.6,74.0,76.4,71.7,66.8,99,72,42,29.99,29.88,6,3,10,0.00
2013-6-15,88.3,80.7,73.7,76.9,73.7,70.7,96,79,65,30.11,29.95,4,2,6,0.00
2013-6-16,87.2,80.9,76.1,76.2,75.0,73.4,91,82,70,30.14,30.07,6,2,8,0.00
2013-6-17,88.0,81.7,75.9,78.2,75.6,72.9,94,82,68,30.13,30.03,6,2,9,0.00
2013-6-18,91.7,82.2,76.0,77.9,74.6,71.0,93,78,53,30.11,30.00,7,2,10,0.00
2013-6-19,89.0,79.6,71.6,76.7,71.6,64.0,86,76,55,30.09,30.00,8,2,10,0.00
2013-6-20,88.5,77.7,72.5,76.7,72.3,66.3,93,84,63,30.14,30.05,5,1,7,0.00
2013-6-21,85.6,76.0,71.4,76.5,71.9,66.9,97,88,69,30.18,30.07,3,0,5,0.00
2013-6-22,87.0,79.5,71.4,78.2,72.9,69.7,98,81,66,30.17,30.09,4,1,7,0.00
2013-6-23,86.5,79.1,72.5,77.0,73.5,70.8,96,83,65,30.20,30.10,6,2,8,0.00
2013-6-24,87.2,81.2,73.9,76.2,73.7,70.8,93,78,65,30.24,30.13,5,2,8,0.00
2013-6-25,89.2,81.7,76.7,75.5,74.2,73.4,91,78,62,30.20,30.09,5,2,8,0.00
2013-6-26,86.5,79.0,75.2,78.5,75.4,73.2,94,88,70,30.14,30.05,4,1,6,0.00
2013-6-27,87.0,79.9,72.8,79.2,74.2,71.8,99,83,68,30.10,29.98,6,2,10,0.00
2013-6-28,94.3,80.3,74.4,73.9,71.4,66.8,87,75,46,30.03,29.87,7,2,14,0.00
2013-6-29,93.3,78.9,72.6,76.3,71.7,68.1,95,80,47,29.96,29.85,6,2,9,0.00
2013-6-30,88.7,76.8,72.7,79.0,73.4,70.0,98,90,65,29.97,29.88,6,1,8,0.00
2013-7-1,89.0,75.9,71.0,77.8,73.0,68.3,98,91,67,30.12,29.93,6,1,11,0.00
2013-7-2,82.0,75.2,71.2,78.8,72.8,70.5,99,92,80,30.15,30.02,5,1,7,0.00
2013-7-3,84.8,77.8,72.8,75.6,73.4,70.6,98,87,74,30.18,30.10,6,2,8,0.00
2013-7-4,85.8,77.8,72.3,75.0,72.2,69.9,96,83,69,30.21,30.13,7,2,10,0.00
2013-7-5,84.5,78.1,72.5,75.0,72.5,67.6,93,83,71,30.20,30.11,6,2,10,0.00
2013-7-6,84.8,78.1,73.7,75.7,72.6,69.9,94,83,69,30.19,30.10,6,2,9,0.00
2013-7-7,86.5,79.2,72.2,77.3,73.5,70.0,97,83,68,30.19,30.09,6,1,8,0.00
2013-7-8,88.1,80.8,74.8,78.8,74.5,72.3,97,82,66,30.21,30.13,5,1,7,0.00
2013-7-9,85.6,79.4,73.4,76.1,73.1,68.5,93,81,63,30.23,30.10,7,1,10,0.00
2013-7-10,84.7,79.2,73.1,76.1,72.7,70.5,94,81,67,30.14,30.03,6,2,9,0.00
2013-7-11,88.7,79.9,74.6,78.7,73.3,69.2,94,80,57,30.09,29.98,6,2,8,0.00
2013-7-12,88.3,77.6,72.1,75.9,72.0,67.7,96,84,63,30.02,29.91,10,1,13,0.00
2013-7-13,84.3,75.5,71.3,77.8,72.8,70.4,99,92,72,30.05,29.96,5,1,8,0.00
2013-7-14,83.0,75.0,70.7,75.3,71.6,69.3,96,89,75,30.14,30.03,6,1,9,0.00
2013-7-15,82.5,75.9,70.6,75.4,72.5,69.6,98,89,76,30.16,30.07,4,2,7,0.00
2013-7-16,86.3,76.9,73.3,74.7,72.3,69.3,96,86,68,30.21,20.01,4,1,6,0.00
2013-7-17,83.3,76.8,72.5,76.9,73.4,68.4,97,89,75,30.20,30.11,10,1,15,0.00
2013-7-18,84.5,77.0,73.1,76.1,73.4,71.8,98,89,71,30.18,30.09,6,1,8,0.00
2013-7-19,86.0,78.2,72.7,78.0,74.4,70.5,97,88,71,30.18,30.08,6,2,9,0.00
2013-7-20,86.2,77.7,72.1,80.7,74.7,69.4,97,90,78,30.17,30.06,6,1,12,0.00
2013-7-21,90.5,77.3,72.1,77.4,73.7,70.5,98,89,63,30.18,30.08,9,2,14,0.00
2013-7-22,91.9,79.1,72.3,77.3,72.9,67.0,98,82,59,30.18,30.09,6,2,9,0.00
2013-7-23,93.3,80.7,74.1,77.1,72.9,68.9,95,78,50,30.14,29.99,6,1,9,0.00
2013-7-24,91.0,78.9,74.9,76.4,73.6,67.5,97,84,56,30.06,29.93,6,2,9,0.00
2013-7-25,84.7,78.4,73.1,77.2,74.7,72.2,100,88,73,30.03,29.92,6,2,10,0.00
2013-7-26,86.0,79.1,73.9,77.5,74.7,72.2,100,87,72,30.05,29.98,5,1,6,0.00
2013-7-27,86.8,80.2,73.6,79.1,75.2,72.9,99,85,72,30.04,29.95,6,1,8,0.00
2013-7-28,88.5,79.8,75.0,76.5,73.8,68.7,96,82,66,30.11,29.96,7,1,9,0.00
2013-7-29,87.4,79.7,72.7,78.1,74.0,71.0,97,83,66,30.20,30.06,4,1,6,0.00
2013-7-30,87.2,80.6,74.6,79.3,75.5,73.4,98,85,69,30.23,30.13,6,1,7,0.00
2013-7-31,89.4,81.9,75.9,80.3,76.0,72.9,98,82,66,30.18,30.05,6,2,9,0.00
2013-8-1,88.9,81.7,74.9,78.9,74.2,71.8,94,78,62,30.11,30.00,6,2,10,0.00
2013-8-2,86.1,80.4,74.0,78.2,73.6,71.3,95,80,67,30.07,29.97,5,2,8,0.00
2013-8-3,86.7,77.3,72.1,78.0,73.5,69.0,97,88,73,30.15,30.04,6,2,10,0.00
2013-8-4,93.8,81.1,75.0,78.9,75.1,70.8,99,83,53,30.14,30.02,6,2,12,0.00
2013-8-5,91.3,80.5,74.9,80.3,75.6,70.0,100,85,60,30.07,29.96,6,2,9,0.00
2013-8-6,88.3,80.5,73.1,77.9,75.1,71.8,97,84,69,30.02,29.94,4,1,5,0.00
2013-8-7,89.6,82.4,75.3,78.6,76.0,71.8,93,81,67,30.04,29.95,6,2,9,0.00
2013-8-8,89.5,83.0,77.8,78.0,75.8,74.3,90,79,66,30.09,29.98,7,2,9,0.00
2013-8-9,89.6,82.6,78.0,77.9,74.5,71.0,86,76,64,30.12,30.01,6,2,8,0.00
2013-8-10,89.3,81.7,74.6,79.0,75.4,70.9,96,81,66,30.18,30.09,6,2,8,0.00
2013-8-11,89.2,82.7,77.3,79.9,75.6,72.5,96,80,63,30.20,30.12,5,1,8,0.00
2013-8-12,88.9,81.3,73.2,79.5,73.3,70.3,96,77,61,30.17,30.06,3,1,5,0.00
2013-8-13,89.6,82.4,74.9,79.9,74.8,70.8,95,78,65,30.11,29.99,6,2,9,0.00
2013-8-14,92.8,82.3,76.0,76.5,74.3,72.5,94,77,57,30.06,29.96,7,2,9,0.00
2013-8-15,86.7,80.9,76.0,78.3,74.6,72.7,92,81,68,30.09,29.99,7,2,10,0.00
2013-8-16,88.6,81.7,76.7,77.3,75.2,73.3,93,81,61,30.10,30.01,6,2,8,0.00
2013-8-17,90.1,82.4,78.1,80.7,77.4,76.1,97,85,70,30.13,30.05,6,1,9,0.00
2013-8-18,88.3,81.5,75.3,80.5,76.3,71.7,95,84,69,30.15,30.06,6,1,10,0.00
2013-8-19,90.3,82.6,77.6,78.9,76.6,74.2,97,82,67,30.14,30.01,6,1,8,0.00
2013-8-20,90.1,82.6,77.2,79.0,75.9,72.5,93,80,64,30.14,30.04,5,1,8,0.00
2013-8-21,90.5,82.1,77.4,79.6,76.4,72.7,95,83,67,30.16,30.06,6,2,8,0.00
2013-8-22,90.5,82.3,75.3,79.8,76.8,73.8,96,84,67,30.13,30.02,5,1,7,0.00
2013-8-23,88.8,82.4,78.4,81.2,76.2,74.0,94,82,67,30.07,29.99,6,2,10,0.00
2013-8-24,89.3,81.5,75.3,81.2,75.0,70.3,94,81,66,30.14,30.03,7,2,11,0.00
2013-8-25,86.3,80.1,77.1,77.8,75.0,72.0,91,84,71,30.21,30.09,4,1,6,0.00
2013-8-26,89.0,80.9,74.3,77.4,74.2,69.5,94,80,63,30.18,30.06,6,1,8,0.00
2013-8-27,88.9,81.6,75.8,75.0,71.2,68.2,94,71,55,30.11,30.03,3,1,6,0.00
2013-8-28,88.1,82.2,77.9,72.8,70.9,67.7,78,68,57,30.11,30.01,4,2,6,0.00
2013-8-29,89.0,81.6,73.1,75.5,72.4,69.7,93,74,59,30.08,29.98,4,1,6,0.00
2013-8-30,89.4,81.1,74.2,77.6,73.6,69.8,94,78,62,30.04,29.94,5,1,8,0.00
2013-8-31,91.5,80.5,74.2,76.2,72.9,67.9,96,78,55,30.04,29.93,6,2,10,0.00
2013-9-1,91.5,79.2,72.8,75.2,71.7,68.0,92,78,56,30.05,29.96,5,1,7,0.00
2013-9-2,89.3,78.2,72.4,77.5,72.7,68.7,98,84,64,30.07,29.96,8,1,12,0.00
2013-9-3,88.8,80.1,73.1,75.3,73.3,70.4,98,81,61,30.07,29.97,4,1,6,0.00
2013-9-4,89.3,81.0,74.3,81.2,75.3,71.4,96,83,68,30.13,30.00,2,0,5,0.00
2013-9-5,91.0,84.1,79.9,79.6,76.7,74.8,90,79,63,30.13,30.05,3,1,5,0.00
2013-9-6,90.8,82.4,76.1,81.0,75.3,72.5,93,79,62,30.10,29.99,3,1,6,0.00
2013-9-7,87.8,81.4,77.3,76.8,73.9,71.2,90,78,62,30.05,29.95,4,1,6,0.00
2013-9-8,88.0,81.5,74.9,78.1,73.5,71.4,96,77,62,30.01,29.91,5,1,7,0.00
2013-9-9,89.5,81.7,74.2,74.9,72.8,69.8,94,75,58,30.06,29.95,5,1,8,0.00
2013-9-10,89.3,83.0,78.5,74.2,71.5,69.3,83,68,56,30.13,30.02,6,2,8,0.00
2013-9-11,86.8,80.4,72.1,77.2,73.6,68.9,93,79,69,30.14,30.04,6,2,9,0.00
2013-9-12,86.1,78.2,74.1,76.2,73.0,70.3,95,84,67,30.08,29.94,5,0,7,0.00
2013-9-13,88.0,79.4,72.3,80.7,73.5,71.1,101,83,65,29.97,29.84,2,0,4,0.00
2013-9-14,89.7,82.0,74.5,80.7,75.3,71.7,96,81,67,30.02,29.86,3,1,5,0.00
2013-9-15,89.0,79.9,72.7,79.3,74.7,70.3,95,84,71,30.12,29.99,5,1,8,0.00
2013-9-16,87.9,80.2,72.8,78.0,74.2,70.8,97,82,66,30.12,30.03,7,1,9,0.00
2013-9-17,86.8,79.7,74.1,79.3,73.9,70.1,93,82,71,30.12,30.00,6,2,9,0.00
2013-9-18,87.9,79.9,77.0,77.2,74.0,71.7,90,82,68,30.07,29.98,5,2,6,0.00
2013-9-19,88.5,81.2,77.2,77.6,73.4,68.8,87,77,61,30.08,30.00,3,2,5,0.00
2013-9-20,87.0,81.1,77.6,69.6,67.9,66.1,75,64,53,30.07,29.95,3,1,5,0.00
2013-9-21,86.0,79.7,71.0,77.8,69.6,66.7,92,72,57,29.98,29.82,3,1,5,0.00
2013-9-22,91.3,80.4,73.6,79.1,72.2,68.0,96,77,53,29.90,29.79,4,1,6,0.00
2013-9-23,87.8,77.2,73.1,81.6,73.8,70.4,100,90,70,30.03,29.88,4,0,8,0.00
2013-9-24,87.1,77.8,74.3,79.7,75.8,71.6,102,93,78,30.01,29.88,4,1,6,0.00
2013-9-25,86.5,78.1,73.2,74.8,71.1,68.7,96,80,60,29.90,29.82,7,2,10,0.00
2013-9-26,91.7,80.3,74.0,78.8,73.2,68.4,97,80,59,29.89,29.79,6,2,8,0.00
2013-9-27,82.7,76.4,71.0,75.5,71.4,68.5,99,85,68,29.98,29.85,5,2,8,0.00
2013-9-28,86.9,78.8,71.9,75.0,69.9,65.0,93,74,62,30.03,29.93,4,1,6,0.00
2013-9-29,85.7,79.6,73.3,75.7,69.6,66.7,92,71,60,30.03,29.94,3,1,4,0.00
2013-9-30,86.3,78.3,69.6,78.1,70.8,68.1,100,79,60,30.06,29.95,2,1,4,0.00
2013-10-1,86.9,79.9,72.3,77.9,71.1,67.7,93,74,60,30.10,30.01,3,2,5,0.00
2013-10-2,87.0,80.6,77.2,73.0,70.2,67.1,79,70,57,30.10,30.03,3,2,6,0.00
2013-10-3,87.0,80.8,76.4,72.6,69.9,67.8,78,69,58,30.12,30.02,4,2,6,0.00
2013-10-4,87.6,81.2,77.0,72.5,70.0,67.6,79,68,55,30.12,30.04,3,1,5,0.00
2013-10-5,88.0,81.5,77.4,74.1,71.9,68.6,83,73,60,30.10,30.00,3,1,4,0.00
2013-10-6,88.0,81.3,74.9,77.9,72.4,69.1,87,74,62,30.04,29.91,4,2,6,0.00
2013-10-7,87.0,77.7,73.4,77.1,72.7,68.9,101,85,60,29.94,29.83,5,2,7,0.00
2013-10-8,89.8,79.3,73.7,78.2,72.9,66.7,103,83,50,29.96,29.84,5,2,8,0.00
2013-10-9,82.3,77.2,74.0,75.0,72.6,70.1,97,86,73,30.05,29.92,6,3,8,0.00
2013-10-10,82.1,76.0,70.3,74.2,69.2,64.2,94,79,63,30.09,30.00,4,1,6,0.00
2013-10-11,84.0,77.4,70.6,67.3,63.3,60.3,76,62,48,30.08,29.98,0,0,1,0.00
2013-10-12,86.6,76.6,67.6,73.2,66.2,62.2,94,71,50,30.08,29.99,1,0,3,0.00
2013-10-13,83.4,75.9,67.2,71.4,64.3,59.1,95,68,46,30.12,30.02,1,0,3,0.00
2013-10-14,82.5,77.1,70.7,72.7,67.9,61.1,92,74,63,30.08,29.97,2,0,6,0.00
2013-10-15,81.5,74.5,69.1,73.4,69.9,66.4,100,86,68,30.03,29.92,0,0,1,0.00
2013-10-16,83.0,76.2,70.1,75.4,70.8,67.2,97,84,65,30.01,29.93,0,0,2,0.00
2013-10-17,84.5,77.3,69.7,76.4,70.4,66.5,98,80,59,30.02,29.94,1,0,3,0.00
2013-10-18,85.8,79.0,70.7,78.2,72.0,68.8,97,79,62,30.04,29.95,2,0,4,0.00
2013-10-19,86.5,79.8,71.7,78.2,73.0,69.2,95,80,68,30.01,29.91,3,0,7,0.00
2013-10-20,86.0,79.4,74.6,79.3,74.4,72.0,99,85,69,30.01,29.90,2,0,4,0.00
2013-10-21,89.4,80.2,73.4,80.4,74.9,72.2,98,84,67,30.04,29.94,4,1,6,0.00
2013-10-22,91.4,81.0,75.3,77.8,74.1,68.7,96,80,52,30.00,29.84,3,0,6,0.00
2013-10-23,79.8,75.4,70.6,74.2,69.2,61.4,97,80,62,30.03,29.83,1,0,3,0.00
2013-10-24,77.0,72.6,67.9,61.4,58.0,53.9,69,59,53,30.17,30.01,1,0,3,0.00
2013-10-25,78.0,71.7,65.8,68.4,61.5,57.4,93,71,54,30.24,30.15,3,0,7,0.00
2013-10-26,78.2,73.0,69.1,60.3,57.3,52.3,64,57,45,30.23,30.12,1,0,2,0.00
2013-10-27,77.2,71.2,62.6,66.3,59.6,55.7,91,68,50,30.16,30.09,2,0,4,0.00
2013-10-28,82.2,74.2,65.8,71.7,64.2,60.4,92,72,53,30.21,20.01,1,0,2,0.00
2013-10-29,84.2,78.4,75.4,68.1,65.1,63.5,73,63,51,30.25,30.15,3,0,5,0.00
2013-10-30,84.3,78.5,74.1,68.8,66.3,64.7,76,66,55,30.27,30.15,4,1,6,0.00
2013-10-31,83.8,78.8,75.4,71.9,67.8,65.4,83,69,59,30.18,30.04,5,2,8,0.00
2013-11-1,89.3,78.7,71.9,77.2,71.3,67.0,99,79,47,30.06,29.90,3,0,6,0.00
2013-11-2,86.9,73.3,67.2,75.1,67.3,60.6,104,82,53,29.99,29.85,4,0,7,0.00
2013-11-3,77.0,71.3,64.3,63.1,56.4,51.1,79,60,41,30.12,29.96,4,1,7,0.00
2013-11-4,79.4,74.7,70.0,67.8,59.1,51.0,85,60,46,30.18,30.10,3,0,4,0.00
2013-11-5,82.6,76.8,72.8,70.1,68.1,65.2,84,74,63,30.18,30.10,4,2,7,0.00
2013-11-6,82.9,77.1,72.1,69.9,67.1,64.8,90,72,60,30.14,30.06,3,1,5,0.00
2013-11-7,79.3,73.5,69.2,73.7,69.6,66.4,99,87,77,30.08,29.98,2,0,3,0.00
2013-11-8,78.4,73.4,69.8,69.6,67.3,65.3,91,81,73,30.14,30.00,6,3,8,0.00
2013-11-9,80.0,75.5,73.4,67.6,66.2,64.1,78,73,64,30.21,30.10,4,2,6,0.00
2013-11-10,82.2,75.5,71.5,72.1,67.8,65.4,89,77,68,30.20,30.12,3,1,5,0.00
2013-11-11,81.6,75.3,70.6,72.3,69.3,67.1,95,82,65,30.19,30.11,2,0,3,0.00
2013-11-12,77.8,72.9,68.9,72.2,67.9,64.9,97,84,76,30.14,30.03,4,1,6,0.00
2013-11-13,71.2,68.3,66.3,64.9,57.6,50.7,79,67,55,30.32,30.07,8,5,11,0.00
2013-11-14,75.8,70.9,66.7,59.8,55.4,51.6,65,58,51,30.33,30.21,5,3,7,0.00
2013-11-15,78.4,74.4,71.8,67.9,63.4,57.2,81,69,59,30.23,30.11,6,2,8,0.00
2013-11-16,80.9,74.1,69.2,70.5,68.0,65.0,91,81,66,30.16,30.06,4,0,6,0.00
2013-11-17,82.3,76.5,71.9,71.4,70.3,68.7,92,82,65,30.14,30.04,5,1,8,0.00
2013-11-18,87.4,75.5,69.4,71.9,69.8,66.8,97,83,52,30.07,29.96,3,0,6,0.00
2013-11-19,76.8,72.7,69.9,70.9,67.9,64.6,96,85,71,30.00,29.90,4,1,7,0.00
2013-11-20,77.8,73.9,68.9,72.3,69.5,64.6,98,86,76,30.14,29.97,4,1,7,0.00
2013-11-21,78.5,75.4,72.5,72.2,70.5,69.1,93,85,76,30.21,30.11,7,2,12,0.00
2013-11-22,80.4,76.5,74.0,70.3,66.8,62.4,83,72,60,30.24,30.14,6,1,9,0.00
2013-11-23,81.3,75.4,67.6,66.9,64.7,62.0,84,69,57,30.15,30.04,3,0,5,0.00
2013-11-24,74.9,69.3,65.8,68.7,63.0,56.3,98,80,63,30.26,30.04,6,1,10,0.00
2013-11-25,75.3,71.0,68.1,66.5,58.6,54.5,84,65,53,30.29,30.10,7,2,10,0.00
2013-11-26,81.8,75.2,70.9,74.5,70.2,66.0,92,84,70,30.12,29.81,8,2,12,0.00
2013-11-27,74.2,67.3,50.6,72.7,60.3,45.4,96,78,52,30.20,29.75,8,2,12,0.00
2013-11-28,70.1,56.1,42.5,56.3,48.2,39.0,91,76,52,30.35,30.19,3,0,6,0.00
2013-11-29,73.7,67.7,58.1,62.8,58.0,55.0,95,72,55,30.37,30.28,5,1,8,0.00
2013-11-30,78.0,71.7,62.9,66.3,63.3,60.4,97,76,59,30.30,30.19,4,1,6,0.00
2013-12-1,71.5,67.0,64.6,68.0,64.0,58.1,97,90,76,30.20,30.00,2,0,5,0.00
2013-12-2,69.9,64.1,57.3,62.3,54.1,46.0,81,70,52,30.00,29.85,0,0,1,0.00
2013-12-3,76.3,66.5,59.0,65.1,58.8,51.8,86,77,58,30.05,29.93,3,0,5,0.00
2013-12-4,81.4,70.0,61.9,71.4,64.8,57.1,88,83,72,30.15,30.02,3,0,5,0.00
2013-12-5,79.1,71.4,63.2,72.7,65.5,56.2,87,81,65,30.23,30.13,3,0,5,0.00
2013-12-6,79.5,72.3,66.9,73.9,66.4,57.6,91,82,61,30.24,30.14,4,0,6,0.00
2013-12-7,77.6,71.3,63.4,73.1,66.5,57.6,90,85,68,30.29,30.20,1,0,3,0.00
2013-12-8,80.5,75.9,71.2,73.0,70.3,67.3,92,83,68,30.27,30.16,5,0,8,0.00
2013-12-9,81.8,74.6,68.1,74.7,69.2,65.3,97,84,65,30.24,30.14,5,0,7,0.00
2013-12-10,85.2,73.8,63.8,73.5,65.9,59.0,97,78,46,30.22,30.11,4,0,6,0.00
2013-12-11,81.7,74.7,67.9,71.3,69.2,65.7,98,83,66,30.28,30.18,0,0,1,0.00
2013-12-12,69.5,66.9,65.4,69.1,59.8,51.7,98,78,56,30.32,30.20,1,0,7,0.00
2013-12-13,75.2,70.3,66.8,62.0,56.0,51.7,73,60,50,30.29,30.17,0,0,3,0.00
2013-12-14,79.3,74.2,71.5,73.4,69.1,62.1,96,84,73,30.18,30.00,0,0,4,0.00
2013-12-15,77.6,69.8,64.5,72.1,66.0,57.9,100,87,72,30.14,29.95,1,0,2,0.00
2013-12-16,66.0,60.5,54.5,59.0,55.7,52.8,94,84,66,30.25,30.12,0,0,0,0.00
2013-12-17,71.7,62.7,53.8,64.6,57.6,52.6,99,85,61,30.27,30.17,0,0,4,0.00
2013-12-18,67.9,61.6,53.2,57.2,50.0,42.4,96,67,47,30.32,30.21,0,0,0,0.00
2013-12-19,75.0,66.1,53.6,63.0,55.3,45.3,98,70,52,30.32,30.22,0,0,3,0.00
2013-12-20,78.8,71.5,57.9,68.5,62.6,52.8,94,75,55,30.26,30.17,0,0,2,0.00
2013-12-21,79.4,74.2,70.7,73.4,71.3,68.4,99,91,79,30.20,30.10,1,0,4,0.00
2013-12-22,81.6,74.6,68.1,75.7,70.1,62.6,95,86,73,30.20,30.12,0,0,3,0.00
2013-12-23,85.3,75.3,70.7,76.4,70.5,64.8,93,85,62,30.22,30.13,2,0,5,0.00
2013-12-24,70.9,66.2,61.8,68.5,60.6,50.1,95,82,61,30.26,30.14,4,0,7,0.00
2013-12-25,75.2,70.1,66.3,60.1,56.6,52.4,70,62,51,30.27,30.19,2,0,6,0.00
2013-12-26,74.1,69.1,64.1,67.4,63.9,56.7,97,84,65,30.24,30.13,2,0,5,0.00
2013-12-27,74.1,69.8,67.3,71.3,67.4,65.6,96,92,85,30.27,30.17,1,0,2,0.00
2013-12-28,76.4,72.6,68.4,72.4,69.3,63.5,95,90,80,30.25,30.07,1,0,4,0.00
2013-12-29,81.1,74.5,70.7,77.0,70.9,66.7,96,88,79,30.09,29.91,2,0,4,0.00
2013-12-30,71.9,65.6,61.6,70.5,62.1,50.1,97,88,57,30.22,30.02,0,0,0,0.00
2013-12-31,70.7,67.3,65.8,62.0,57.6,54.2,80,71,64,30.33,30.18,2,0,7,0.00
2014-1-1,71.5,69.3,66.7,70.6,65.7,59.5,99,89,67,30.28,30.08,2,0,4,0.00
2014-1-2,83.1,71.8,64.0,74.2,63.9,56.9,96,76,58,30.08,29.86,3,0,7,0.00